Index of /20260427/WXO-DD/model_rdps/10km/12/080
Name Last modified Size Description
Parent Directory -
20260427T12Z_MSC_RDPS_AbsoluteVorticity_IsbL-0250_RLatLon0.09_PT080H.grib2 2026-04-27 15:06 619K
20260427T12Z_MSC_RDPS_AbsoluteVorticity_IsbL-0500_RLatLon0.09_PT080H.grib2 2026-04-27 15:06 571K
20260427T12Z_MSC_RDPS_AbsoluteVorticity_IsbL-0700_RLatLon0.09_PT080H.grib2 2026-04-27 15:06 620K
20260427T12Z_MSC_RDPS_AbsoluteVorticity_IsbL-0850_RLatLon0.09_PT080H.grib2 2026-04-27 15:06 775K
20260427T12Z_MSC_RDPS_AirTemp_AGL-120m_RLatLon0.09_PT080H.grib2 2026-04-27 15:06 394K
20260427T12Z_MSC_RDPS_AirTemp_AGL-2m_RLatLon0.09_PT080H.grib2 2026-04-27 15:06 630K
20260427T12Z_MSC_RDPS_AirTemp_AGL-40m_RLatLon0.09_PT080H.grib2 2026-04-27 15:06 404K
20260427T12Z_MSC_RDPS_AirTemp_AGL-80m_RLatLon0.09_PT080H.grib2 2026-04-27 15:06 399K
20260427T12Z_MSC_RDPS_AirTemp_IsbL-0001_RLatLon0.09_PT080H.grib2 2026-04-27 15:06 284K
20260427T12Z_MSC_RDPS_AirTemp_IsbL-0005_RLatLon0.09_PT080H.grib2 2026-04-27 15:06 293K
20260427T12Z_MSC_RDPS_AirTemp_IsbL-0010_RLatLon0.09_PT080H.grib2 2026-04-27 15:06 307K
20260427T12Z_MSC_RDPS_AirTemp_IsbL-0020_RLatLon0.09_PT080H.grib2 2026-04-27 15:06 323K
20260427T12Z_MSC_RDPS_AirTemp_IsbL-0030_RLatLon0.09_PT080H.grib2 2026-04-27 15:06 345K
20260427T12Z_MSC_RDPS_AirTemp_IsbL-0050_RLatLon0.09_PT080H.grib2 2026-04-27 15:06 315K
20260427T12Z_MSC_RDPS_AirTemp_IsbL-0100_RLatLon0.09_PT080H.grib2 2026-04-27 15:06 425K
20260427T12Z_MSC_RDPS_AirTemp_IsbL-0150_RLatLon0.09_PT080H.grib2 2026-04-27 15:06 424K
20260427T12Z_MSC_RDPS_AirTemp_IsbL-0175_RLatLon0.09_PT080H.grib2 2026-04-27 15:06 412K
20260427T12Z_MSC_RDPS_AirTemp_IsbL-0200_RLatLon0.09_PT080H.grib2 2026-04-27 15:06 416K
20260427T12Z_MSC_RDPS_AirTemp_IsbL-0225_RLatLon0.09_PT080H.grib2 2026-04-27 15:06 416K
20260427T12Z_MSC_RDPS_AirTemp_IsbL-0250_RLatLon0.09_PT080H.grib2 2026-04-27 15:06 424K
20260427T12Z_MSC_RDPS_AirTemp_IsbL-0275_RLatLon0.09_PT080H.grib2 2026-04-27 15:06 402K
20260427T12Z_MSC_RDPS_AirTemp_IsbL-0300_RLatLon0.09_PT080H.grib2 2026-04-27 15:06 434K
20260427T12Z_MSC_RDPS_AirTemp_IsbL-0350_RLatLon0.09_PT080H.grib2 2026-04-27 15:06 423K
20260427T12Z_MSC_RDPS_AirTemp_IsbL-0400_RLatLon0.09_PT080H.grib2 2026-04-27 15:06 392K
20260427T12Z_MSC_RDPS_AirTemp_IsbL-0450_RLatLon0.09_PT080H.grib2 2026-04-27 15:06 398K
20260427T12Z_MSC_RDPS_AirTemp_IsbL-0500_RLatLon0.09_PT080H.grib2 2026-04-27 15:06 408K
20260427T12Z_MSC_RDPS_AirTemp_IsbL-0550_RLatLon0.09_PT080H.grib2 2026-04-27 15:06 425K
20260427T12Z_MSC_RDPS_AirTemp_IsbL-0600_RLatLon0.09_PT080H.grib2 2026-04-27 15:06 448K
20260427T12Z_MSC_RDPS_AirTemp_IsbL-0650_RLatLon0.09_PT080H.grib2 2026-04-27 15:06 361K
20260427T12Z_MSC_RDPS_AirTemp_IsbL-0700_RLatLon0.09_PT080H.grib2 2026-04-27 15:06 381K
20260427T12Z_MSC_RDPS_AirTemp_IsbL-0750_RLatLon0.09_PT080H.grib2 2026-04-27 15:06 413K
20260427T12Z_MSC_RDPS_AirTemp_IsbL-0800_RLatLon0.09_PT080H.grib2 2026-04-27 15:06 451K
20260427T12Z_MSC_RDPS_AirTemp_IsbL-0850_RLatLon0.09_PT080H.grib2 2026-04-27 15:06 500K
20260427T12Z_MSC_RDPS_AirTemp_IsbL-0875_RLatLon0.09_PT080H.grib2 2026-04-27 15:06 522K
20260427T12Z_MSC_RDPS_AirTemp_IsbL-0900_RLatLon0.09_PT080H.grib2 2026-04-27 15:06 535K
20260427T12Z_MSC_RDPS_AirTemp_IsbL-0925_RLatLon0.09_PT080H.grib2 2026-04-27 15:06 532K
20260427T12Z_MSC_RDPS_AirTemp_IsbL-0950_RLatLon0.09_PT080H.grib2 2026-04-27 15:06 534K
20260427T12Z_MSC_RDPS_AirTemp_IsbL-0970_RLatLon0.09_PT080H.grib2 2026-04-27 15:06 527K
20260427T12Z_MSC_RDPS_AirTemp_IsbL-0985_RLatLon0.09_PT080H.grib2 2026-04-27 15:06 527K
20260427T12Z_MSC_RDPS_AirTemp_IsbL-1000_RLatLon0.09_PT080H.grib2 2026-04-27 15:06 516K
20260427T12Z_MSC_RDPS_AirTemp_IsbL-1015_RLatLon0.09_PT080H.grib2 2026-04-27 15:06 513K
20260427T12Z_MSC_RDPS_Albedo_Sfc_RLatLon0.09_PT080H.grib2 2026-04-27 15:06 163K
20260427T12Z_MSC_RDPS_CAPE_Sfc_RLatLon0.09_PT080H.grib2 2026-04-27 15:06 1.7M
20260427T12Z_MSC_RDPS_CIN_Sfc_RLatLon0.09_PT080H.grib2 2026-04-27 15:06 1.2M
20260427T12Z_MSC_RDPS_CloudWater_EAtm_RLatLon0.09_PT080H.grib2 2026-04-27 15:06 223K
20260427T12Z_MSC_RDPS_ConvectivePrecip-Accum_Sfc_RLatLon0.09_PT080H.grib2 2026-04-27 15:06 1.3M
20260427T12Z_MSC_RDPS_DewPointDepression_AGL-2m_RLatLon0.09_PT080H.grib2 2026-04-27 15:06 420K
20260427T12Z_MSC_RDPS_DewPointDepression_IsbL-0001_RLatLon0.09_PT080H.grib2 2026-04-27 15:06 193
20260427T12Z_MSC_RDPS_DewPointDepression_IsbL-0005_RLatLon0.09_PT080H.grib2 2026-04-27 15:06 193
20260427T12Z_MSC_RDPS_DewPointDepression_IsbL-0010_RLatLon0.09_PT080H.grib2 2026-04-27 15:06 193
20260427T12Z_MSC_RDPS_DewPointDepression_IsbL-0020_RLatLon0.09_PT080H.grib2 2026-04-27 15:06 193
20260427T12Z_MSC_RDPS_DewPointDepression_IsbL-0030_RLatLon0.09_PT080H.grib2 2026-04-27 15:06 193
20260427T12Z_MSC_RDPS_DewPointDepression_IsbL-0050_RLatLon0.09_PT080H.grib2 2026-04-27 15:06 82K
20260427T12Z_MSC_RDPS_DewPointDepression_IsbL-0100_RLatLon0.09_PT080H.grib2 2026-04-27 15:06 125K
20260427T12Z_MSC_RDPS_DewPointDepression_IsbL-0150_RLatLon0.09_PT080H.grib2 2026-04-27 15:06 149K
20260427T12Z_MSC_RDPS_DewPointDepression_IsbL-0175_RLatLon0.09_PT080H.grib2 2026-04-27 15:06 182K
20260427T12Z_MSC_RDPS_DewPointDepression_IsbL-0200_RLatLon0.09_PT080H.grib2 2026-04-27 15:06 220K
20260427T12Z_MSC_RDPS_DewPointDepression_IsbL-0225_RLatLon0.09_PT080H.grib2 2026-04-27 15:06 265K
20260427T12Z_MSC_RDPS_DewPointDepression_IsbL-0250_RLatLon0.09_PT080H.grib2 2026-04-27 15:06 303K
20260427T12Z_MSC_RDPS_DewPointDepression_IsbL-0275_RLatLon0.09_PT080H.grib2 2026-04-27 15:06 308K
20260427T12Z_MSC_RDPS_DewPointDepression_IsbL-0300_RLatLon0.09_PT080H.grib2 2026-04-27 15:06 327K
20260427T12Z_MSC_RDPS_DewPointDepression_IsbL-0350_RLatLon0.09_PT080H.grib2 2026-04-27 15:06 330K
20260427T12Z_MSC_RDPS_DewPointDepression_IsbL-0400_RLatLon0.09_PT080H.grib2 2026-04-27 15:06 340K
20260427T12Z_MSC_RDPS_DewPointDepression_IsbL-0450_RLatLon0.09_PT080H.grib2 2026-04-27 15:06 347K
20260427T12Z_MSC_RDPS_DewPointDepression_IsbL-0500_RLatLon0.09_PT080H.grib2 2026-04-27 15:06 354K
20260427T12Z_MSC_RDPS_DewPointDepression_IsbL-0550_RLatLon0.09_PT080H.grib2 2026-04-27 15:06 367K
20260427T12Z_MSC_RDPS_DewPointDepression_IsbL-0600_RLatLon0.09_PT080H.grib2 2026-04-27 15:06 384K
20260427T12Z_MSC_RDPS_DewPointDepression_IsbL-0650_RLatLon0.09_PT080H.grib2 2026-04-27 15:06 395K
20260427T12Z_MSC_RDPS_DewPointDepression_IsbL-0700_RLatLon0.09_PT080H.grib2 2026-04-27 15:06 402K
20260427T12Z_MSC_RDPS_DewPointDepression_IsbL-0750_RLatLon0.09_PT080H.grib2 2026-04-27 15:06 422K
20260427T12Z_MSC_RDPS_DewPointDepression_IsbL-0800_RLatLon0.09_PT080H.grib2 2026-04-27 15:06 449K
20260427T12Z_MSC_RDPS_DewPointDepression_IsbL-0850_RLatLon0.09_PT080H.grib2 2026-04-27 15:06 477K
20260427T12Z_MSC_RDPS_DewPointDepression_IsbL-0875_RLatLon0.09_PT080H.grib2 2026-04-27 15:06 481K
20260427T12Z_MSC_RDPS_DewPointDepression_IsbL-0900_RLatLon0.09_PT080H.grib2 2026-04-27 15:06 476K
20260427T12Z_MSC_RDPS_DewPointDepression_IsbL-0925_RLatLon0.09_PT080H.grib2 2026-04-27 15:06 458K
20260427T12Z_MSC_RDPS_DewPointDepression_IsbL-0950_RLatLon0.09_PT080H.grib2 2026-04-27 15:06 449K
20260427T12Z_MSC_RDPS_DewPointDepression_IsbL-0970_RLatLon0.09_PT080H.grib2 2026-04-27 15:06 440K
20260427T12Z_MSC_RDPS_DewPointDepression_IsbL-0985_RLatLon0.09_PT080H.grib2 2026-04-27 15:06 436K
20260427T12Z_MSC_RDPS_DewPointDepression_IsbL-1000_RLatLon0.09_PT080H.grib2 2026-04-27 15:06 433K
20260427T12Z_MSC_RDPS_DewPointDepression_IsbL-1015_RLatLon0.09_PT080H.grib2 2026-04-27 15:06 423K
20260427T12Z_MSC_RDPS_DewPoint_AGL-2m_RLatLon0.09_PT080H.grib2 2026-04-27 15:06 399K
20260427T12Z_MSC_RDPS_DownwardLongwaveRadiationFlux-Accum_Sfc_RLatLon0.09_PT080H.grib2 2026-04-27 15:06 437K
20260427T12Z_MSC_RDPS_DownwardShortwaveRadiationFlux-Accum_NTAtm_RLatLon0.09_PT080H.grib2 2026-04-27 15:06 113K
20260427T12Z_MSC_RDPS_DownwardShortwaveRadiationFlux-Accum_Sfc_RLatLon0.09_PT080H.grib2 2026-04-27 15:06 643K
20260427T12Z_MSC_RDPS_FreezingRain-Accum1h_Sfc_RLatLon0.09_PT080H.grib2 2026-04-27 15:06 10K
20260427T12Z_MSC_RDPS_FreezingRain-Accum_Sfc_RLatLon0.09_PT080H.grib2 2026-04-27 15:06 216K
20260427T12Z_MSC_RDPS_GeopotentialHeight_IsbL-0001_RLatLon0.09_PT080H.grib2 2026-04-27 15:06 322K
20260427T12Z_MSC_RDPS_GeopotentialHeight_IsbL-0005_RLatLon0.09_PT080H.grib2 2026-04-27 15:06 340K
20260427T12Z_MSC_RDPS_GeopotentialHeight_IsbL-0010_RLatLon0.09_PT080H.grib2 2026-04-27 15:06 342K
20260427T12Z_MSC_RDPS_GeopotentialHeight_IsbL-0020_RLatLon0.09_PT080H.grib2 2026-04-27 15:06 308K
20260427T12Z_MSC_RDPS_GeopotentialHeight_IsbL-0030_RLatLon0.09_PT080H.grib2 2026-04-27 15:06 310K
20260427T12Z_MSC_RDPS_GeopotentialHeight_IsbL-0050_RLatLon0.09_PT080H.grib2 2026-04-27 15:06 310K
20260427T12Z_MSC_RDPS_GeopotentialHeight_IsbL-0100_RLatLon0.09_PT080H.grib2 2026-04-27 15:06 285K
20260427T12Z_MSC_RDPS_GeopotentialHeight_IsbL-0150_RLatLon0.09_PT080H.grib2 2026-04-27 15:06 229K
20260427T12Z_MSC_RDPS_GeopotentialHeight_IsbL-0175_RLatLon0.09_PT080H.grib2 2026-04-27 15:06 263K
20260427T12Z_MSC_RDPS_GeopotentialHeight_IsbL-0200_RLatLon0.09_PT080H.grib2 2026-04-27 15:06 266K
20260427T12Z_MSC_RDPS_GeopotentialHeight_IsbL-0225_RLatLon0.09_PT080H.grib2 2026-04-27 15:06 268K
20260427T12Z_MSC_RDPS_GeopotentialHeight_IsbL-0250_RLatLon0.09_PT080H.grib2 2026-04-27 15:06 268K
20260427T12Z_MSC_RDPS_GeopotentialHeight_IsbL-0275_RLatLon0.09_PT080H.grib2 2026-04-27 15:06 267K
20260427T12Z_MSC_RDPS_GeopotentialHeight_IsbL-0300_RLatLon0.09_PT080H.grib2 2026-04-27 15:06 266K
20260427T12Z_MSC_RDPS_GeopotentialHeight_IsbL-0350_RLatLon0.09_PT080H.grib2 2026-04-27 15:06 232K
20260427T12Z_MSC_RDPS_GeopotentialHeight_IsbL-0400_RLatLon0.09_PT080H.grib2 2026-04-27 15:06 228K
20260427T12Z_MSC_RDPS_GeopotentialHeight_IsbL-0450_RLatLon0.09_PT080H.grib2 2026-04-27 15:06 296K
20260427T12Z_MSC_RDPS_GeopotentialHeight_IsbL-0500_RLatLon0.09_PT080H.grib2 2026-04-27 15:06 291K
20260427T12Z_MSC_RDPS_GeopotentialHeight_IsbL-0550_RLatLon0.09_PT080H.grib2 2026-04-27 15:06 288K
20260427T12Z_MSC_RDPS_GeopotentialHeight_IsbL-0600_RLatLon0.09_PT080H.grib2 2026-04-27 15:06 283K
20260427T12Z_MSC_RDPS_GeopotentialHeight_IsbL-0650_RLatLon0.09_PT080H.grib2 2026-04-27 15:06 255K
20260427T12Z_MSC_RDPS_GeopotentialHeight_IsbL-0700_RLatLon0.09_PT080H.grib2 2026-04-27 15:06 255K
20260427T12Z_MSC_RDPS_GeopotentialHeight_IsbL-0750_RLatLon0.09_PT080H.grib2 2026-04-27 15:06 339K
20260427T12Z_MSC_RDPS_GeopotentialHeight_IsbL-0800_RLatLon0.09_PT080H.grib2 2026-04-27 15:06 346K
20260427T12Z_MSC_RDPS_GeopotentialHeight_IsbL-0850_RLatLon0.09_PT080H.grib2 2026-04-27 15:06 386K
20260427T12Z_MSC_RDPS_GeopotentialHeight_IsbL-0875_RLatLon0.09_PT080H.grib2 2026-04-27 15:06 391K
20260427T12Z_MSC_RDPS_GeopotentialHeight_IsbL-0900_RLatLon0.09_PT080H.grib2 2026-04-27 15:06 395K
20260427T12Z_MSC_RDPS_GeopotentialHeight_IsbL-0925_RLatLon0.09_PT080H.grib2 2026-04-27 15:06 398K
20260427T12Z_MSC_RDPS_GeopotentialHeight_IsbL-0950_RLatLon0.09_PT080H.grib2 2026-04-27 15:06 402K
20260427T12Z_MSC_RDPS_GeopotentialHeight_IsbL-0970_RLatLon0.09_PT080H.grib2 2026-04-27 15:06 409K
20260427T12Z_MSC_RDPS_GeopotentialHeight_IsbL-0985_RLatLon0.09_PT080H.grib2 2026-04-27 15:06 419K
20260427T12Z_MSC_RDPS_GeopotentialHeight_IsbL-1000_RLatLon0.09_PT080H.grib2 2026-04-27 15:06 433K
20260427T12Z_MSC_RDPS_GeopotentialHeight_IsbL-1015_RLatLon0.09_PT080H.grib2 2026-04-27 15:06 449K
20260427T12Z_MSC_RDPS_Humidex_Sfc_RLatLon0.09_PT080H.grib2 2026-04-27 15:06 2.4M
20260427T12Z_MSC_RDPS_IcePellets-Accum1h_Sfc_RLatLon0.09_PT080H.grib2 2026-04-27 15:06 3.1K
20260427T12Z_MSC_RDPS_IcePellets-Accum_Sfc_RLatLon0.09_PT080H.grib2 2026-04-27 15:06 32K
20260427T12Z_MSC_RDPS_KIndex_Sfc_RLatLon0.09_PT080H.grib2 2026-04-27 15:06 2.5M
20260427T12Z_MSC_RDPS_LatentHeatNetFlux_Sfc_RLatLon0.09_PT080H.grib2 2026-04-27 15:06 298K
20260427T12Z_MSC_RDPS_LiftedIndex-MU-VT_IsbL-0500_RLatLon0.09_PT080H.grib2 2026-04-27 15:06 2.4M
20260427T12Z_MSC_RDPS_NetLongwaveRadiationFlux-Accum_Sfc_RLatLon0.09_PT080H.grib2 2026-04-27 15:06 484K
20260427T12Z_MSC_RDPS_NetShortwaveRadiationFlux-Accum_Sfc_RLatLon0.09_PT080H.grib2 2026-04-27 15:06 647K
20260427T12Z_MSC_RDPS_PlanetaryBoundaryLayerHeight_Sfc_RLatLon0.09_PT080H.grib2 2026-04-27 15:06 1.0M
20260427T12Z_MSC_RDPS_Precip-Accum1h_Sfc_RLatLon0.09_PT080H.grib2 2026-04-27 15:06 1.2M
20260427T12Z_MSC_RDPS_Precip-Accum_Sfc_RLatLon0.09_PT080H.grib2 2026-04-27 15:06 2.2M
20260427T12Z_MSC_RDPS_PrecipRate_Sfc_RLatLon0.09_PT080H.grib2 2026-04-27 15:06 175K
20260427T12Z_MSC_RDPS_PrecipType-Instant_Sfc_RLatLon0.09_PT080H.grib2 2026-04-27 15:06 566K
20260427T12Z_MSC_RDPS_Pressure-Trend3h_Sfc_RLatLon0.09_PT080H.grib2 2026-04-27 15:06 1.2M
20260427T12Z_MSC_RDPS_Pressure_MSL_RLatLon0.09_PT080H.grib2 2026-04-27 15:06 298K
20260427T12Z_MSC_RDPS_Pressure_PVU-1.5_RLatLon0.09_PT080H.grib2 2026-04-27 15:06 2.5M
20260427T12Z_MSC_RDPS_Pressure_PVU-1_RLatLon0.09_PT080H.grib2 2026-04-27 15:06 2.4M
20260427T12Z_MSC_RDPS_Pressure_PVU-2_RLatLon0.09_PT080H.grib2 2026-04-27 15:06 2.4M
20260427T12Z_MSC_RDPS_Pressure_Sfc_RLatLon0.09_PT080H.grib2 2026-04-27 15:06 499K
20260427T12Z_MSC_RDPS_RadiativeTemp_Sfc_RLatLon0.09_PT080H.grib2 2026-04-27 15:06 329K
20260427T12Z_MSC_RDPS_Rain-Accum1h_Sfc_RLatLon0.09_PT080H.grib2 2026-04-27 15:06 591K
20260427T12Z_MSC_RDPS_Rain-Accum_Sfc_RLatLon0.09_PT080H.grib2 2026-04-27 15:06 1.8M
20260427T12Z_MSC_RDPS_RelativeHumidity_AGL-2m_RLatLon0.09_PT080H.grib2 2026-04-27 15:06 1.0M
20260427T12Z_MSC_RDPS_RelativeHumidity_IsbL-0010_RLatLon0.09_PT080H.grib2 2026-04-27 15:06 617K
20260427T12Z_MSC_RDPS_RelativeHumidity_IsbL-0020_RLatLon0.09_PT080H.grib2 2026-04-27 15:06 665K
20260427T12Z_MSC_RDPS_RelativeHumidity_IsbL-0030_RLatLon0.09_PT080H.grib2 2026-04-27 15:06 604K
20260427T12Z_MSC_RDPS_RelativeHumidity_IsbL-0050_RLatLon0.09_PT080H.grib2 2026-04-27 15:06 319K
20260427T12Z_MSC_RDPS_RelativeHumidity_IsbL-0100_RLatLon0.09_PT080H.grib2 2026-04-27 15:06 275K
20260427T12Z_MSC_RDPS_RelativeHumidity_IsbL-0150_RLatLon0.09_PT080H.grib2 2026-04-27 15:06 408K
20260427T12Z_MSC_RDPS_RelativeHumidity_IsbL-0175_RLatLon0.09_PT080H.grib2 2026-04-27 15:06 482K
20260427T12Z_MSC_RDPS_RelativeHumidity_IsbL-0200_RLatLon0.09_PT080H.grib2 2026-04-27 15:06 557K
20260427T12Z_MSC_RDPS_RelativeHumidity_IsbL-0225_RLatLon0.09_PT080H.grib2 2026-04-27 15:06 628K
20260427T12Z_MSC_RDPS_RelativeHumidity_IsbL-0250_RLatLon0.09_PT080H.grib2 2026-04-27 15:06 702K
20260427T12Z_MSC_RDPS_RelativeHumidity_IsbL-0275_RLatLon0.09_PT080H.grib2 2026-04-27 15:06 727K
20260427T12Z_MSC_RDPS_RelativeHumidity_IsbL-0300_RLatLon0.09_PT080H.grib2 2026-04-27 15:06 772K
20260427T12Z_MSC_RDPS_RelativeHumidity_IsbL-0350_RLatLon0.09_PT080H.grib2 2026-04-27 15:06 788K
20260427T12Z_MSC_RDPS_RelativeHumidity_IsbL-0400_RLatLon0.09_PT080H.grib2 2026-04-27 15:06 800K
20260427T12Z_MSC_RDPS_RelativeHumidity_IsbL-0450_RLatLon0.09_PT080H.grib2 2026-04-27 15:06 802K
20260427T12Z_MSC_RDPS_RelativeHumidity_IsbL-0500_RLatLon0.09_PT080H.grib2 2026-04-27 15:06 808K
20260427T12Z_MSC_RDPS_RelativeHumidity_IsbL-0550_RLatLon0.09_PT080H.grib2 2026-04-27 15:06 827K
20260427T12Z_MSC_RDPS_RelativeHumidity_IsbL-0600_RLatLon0.09_PT080H.grib2 2026-04-27 15:06 855K
20260427T12Z_MSC_RDPS_RelativeHumidity_IsbL-0650_RLatLon0.09_PT080H.grib2 2026-04-27 15:06 872K
20260427T12Z_MSC_RDPS_RelativeHumidity_IsbL-0700_RLatLon0.09_PT080H.grib2 2026-04-27 15:06 893K
20260427T12Z_MSC_RDPS_RelativeHumidity_IsbL-0750_RLatLon0.09_PT080H.grib2 2026-04-27 15:06 933K
20260427T12Z_MSC_RDPS_RelativeHumidity_IsbL-0800_RLatLon0.09_PT080H.grib2 2026-04-27 15:06 1.0M
20260427T12Z_MSC_RDPS_RelativeHumidity_IsbL-0850_RLatLon0.09_PT080H.grib2 2026-04-27 15:06 1.0M
20260427T12Z_MSC_RDPS_RelativeHumidity_IsbL-0875_RLatLon0.09_PT080H.grib2 2026-04-27 15:06 1.1M
20260427T12Z_MSC_RDPS_RelativeHumidity_IsbL-0900_RLatLon0.09_PT080H.grib2 2026-04-27 15:06 1.1M
20260427T12Z_MSC_RDPS_RelativeHumidity_IsbL-0925_RLatLon0.09_PT080H.grib2 2026-04-27 15:06 1.1M
20260427T12Z_MSC_RDPS_RelativeHumidity_IsbL-0950_RLatLon0.09_PT080H.grib2 2026-04-27 15:06 1.1M
20260427T12Z_MSC_RDPS_RelativeHumidity_IsbL-0970_RLatLon0.09_PT080H.grib2 2026-04-27 15:06 1.0M
20260427T12Z_MSC_RDPS_RelativeHumidity_IsbL-0985_RLatLon0.09_PT080H.grib2 2026-04-27 15:06 1.0M
20260427T12Z_MSC_RDPS_RelativeHumidity_IsbL-1000_RLatLon0.09_PT080H.grib2 2026-04-27 15:06 1.0M
20260427T12Z_MSC_RDPS_RelativeHumidity_IsbL-1015_RLatLon0.09_PT080H.grib2 2026-04-27 15:06 1.0M
20260427T12Z_MSC_RDPS_Runoff-Accum_Sfc_RLatLon0.09_PT080H.grib2 2026-04-27 15:06 66K
20260427T12Z_MSC_RDPS_SWEATIndex_Sfc_RLatLon0.09_PT080H.grib2 2026-04-27 15:06 2.4M
20260427T12Z_MSC_RDPS_SeeingIndex_EAtm_RLatLon0.09_PT080H.grib2 2026-04-27 15:06 1.0M
20260427T12Z_MSC_RDPS_SensibleHeatNetFlux_Sfc_RLatLon0.09_PT080H.grib2 2026-04-27 15:06 358K
20260427T12Z_MSC_RDPS_ShowalterIndex_IsbL-0500_RLatLon0.09_PT080H.grib2 2026-04-27 15:06 2.6M
20260427T12Z_MSC_RDPS_SkyTransparencyIndex_EAtm_RLatLon0.09_PT080H.grib2 2026-04-27 15:06 699K
20260427T12Z_MSC_RDPS_Snow-Accum1h_Sfc_RLatLon0.09_PT080H.grib2 2026-04-27 15:06 486K
20260427T12Z_MSC_RDPS_Snow-Accum_Sfc_RLatLon0.09_PT080H.grib2 2026-04-27 15:06 847K
20260427T12Z_MSC_RDPS_SnowDensity_Sfc_RLatLon0.09_PT080H.grib2 2026-04-27 15:06 185K
20260427T12Z_MSC_RDPS_SnowDepth_Sfc_RLatLon0.09_PT080H.grib2 2026-04-27 15:06 689K
20260427T12Z_MSC_RDPS_SoilTemp_DBS-0to10cm_RLatLon0.09_PT080H.grib2 2026-04-27 15:06 246K
20260427T12Z_MSC_RDPS_SoilTemp_Sfc_RLatLon0.09_PT080H.grib2 2026-04-27 15:06 298K
20260427T12Z_MSC_RDPS_SoilVolumetricIceContent_Sfc_RLatLon0.09_PT080H.grib2 2026-04-27 15:06 164K
20260427T12Z_MSC_RDPS_SoilVolumetricWaterContent_DBS-0to10cm_RLatLon0.09_PT080H.grib2 2026-04-27 15:06 269K
20260427T12Z_MSC_RDPS_SoilVolumetricWaterContent_DBS-0to1cm_RLatLon0.09_PT080H.grib2 2026-04-27 15:06 339K
20260427T12Z_MSC_RDPS_SpecificHumidity_AGL-120m_RLatLon0.09_PT080H.grib2 2026-04-27 15:06 498K
20260427T12Z_MSC_RDPS_SpecificHumidity_AGL-2m_RLatLon0.09_PT080H.grib2 2026-04-27 15:06 665K
20260427T12Z_MSC_RDPS_SpecificHumidity_AGL-40m_RLatLon0.09_PT080H.grib2 2026-04-27 15:06 503K
20260427T12Z_MSC_RDPS_SpecificHumidity_AGL-80m_RLatLon0.09_PT080H.grib2 2026-04-27 15:06 500K
20260427T12Z_MSC_RDPS_SpecificHumidity_IsbL-0001_RLatLon0.09_PT080H.grib2 2026-04-27 15:06 363K
20260427T12Z_MSC_RDPS_SpecificHumidity_IsbL-0005_RLatLon0.09_PT080H.grib2 2026-04-27 15:06 349K
20260427T12Z_MSC_RDPS_SpecificHumidity_IsbL-0010_RLatLon0.09_PT080H.grib2 2026-04-27 15:06 387K
20260427T12Z_MSC_RDPS_SpecificHumidity_IsbL-0020_RLatLon0.09_PT080H.grib2 2026-04-27 15:06 374K
20260427T12Z_MSC_RDPS_SpecificHumidity_IsbL-0030_RLatLon0.09_PT080H.grib2 2026-04-27 15:06 430K
20260427T12Z_MSC_RDPS_SpecificHumidity_IsbL-0050_RLatLon0.09_PT080H.grib2 2026-04-27 15:06 440K
20260427T12Z_MSC_RDPS_SpecificHumidity_IsbL-0100_RLatLon0.09_PT080H.grib2 2026-04-27 15:06 415K
20260427T12Z_MSC_RDPS_SpecificHumidity_IsbL-0150_RLatLon0.09_PT080H.grib2 2026-04-27 15:06 453K
20260427T12Z_MSC_RDPS_SpecificHumidity_IsbL-0175_RLatLon0.09_PT080H.grib2 2026-04-27 15:06 439K
20260427T12Z_MSC_RDPS_SpecificHumidity_IsbL-0200_RLatLon0.09_PT080H.grib2 2026-04-27 15:06 470K
20260427T12Z_MSC_RDPS_SpecificHumidity_IsbL-0225_RLatLon0.09_PT080H.grib2 2026-04-27 15:06 472K
20260427T12Z_MSC_RDPS_SpecificHumidity_IsbL-0250_RLatLon0.09_PT080H.grib2 2026-04-27 15:06 521K
20260427T12Z_MSC_RDPS_SpecificHumidity_IsbL-0275_RLatLon0.09_PT080H.grib2 2026-04-27 15:06 479K
20260427T12Z_MSC_RDPS_SpecificHumidity_IsbL-0300_RLatLon0.09_PT080H.grib2 2026-04-27 15:06 452K
20260427T12Z_MSC_RDPS_SpecificHumidity_IsbL-0350_RLatLon0.09_PT080H.grib2 2026-04-27 15:06 444K
20260427T12Z_MSC_RDPS_SpecificHumidity_IsbL-0400_RLatLon0.09_PT080H.grib2 2026-04-27 15:06 523K
20260427T12Z_MSC_RDPS_SpecificHumidity_IsbL-0450_RLatLon0.09_PT080H.grib2 2026-04-27 15:06 455K
20260427T12Z_MSC_RDPS_SpecificHumidity_IsbL-0500_RLatLon0.09_PT080H.grib2 2026-04-27 15:06 507K
20260427T12Z_MSC_RDPS_SpecificHumidity_IsbL-0550_RLatLon0.09_PT080H.grib2 2026-04-27 15:06 583K
20260427T12Z_MSC_RDPS_SpecificHumidity_IsbL-0600_RLatLon0.09_PT080H.grib2 2026-04-27 15:06 644K
20260427T12Z_MSC_RDPS_SpecificHumidity_IsbL-0650_RLatLon0.09_PT080H.grib2 2026-04-27 15:06 564K
20260427T12Z_MSC_RDPS_SpecificHumidity_IsbL-0700_RLatLon0.09_PT080H.grib2 2026-04-27 15:06 606K
20260427T12Z_MSC_RDPS_SpecificHumidity_IsbL-0750_RLatLon0.09_PT080H.grib2 2026-04-27 15:06 662K
20260427T12Z_MSC_RDPS_SpecificHumidity_IsbL-0800_RLatLon0.09_PT080H.grib2 2026-04-27 15:06 739K
20260427T12Z_MSC_RDPS_SpecificHumidity_IsbL-0850_RLatLon0.09_PT080H.grib2 2026-04-27 15:06 810K
20260427T12Z_MSC_RDPS_SpecificHumidity_IsbL-0875_RLatLon0.09_PT080H.grib2 2026-04-27 15:06 698K
20260427T12Z_MSC_RDPS_SpecificHumidity_IsbL-0900_RLatLon0.09_PT080H.grib2 2026-04-27 15:06 714K
20260427T12Z_MSC_RDPS_SpecificHumidity_IsbL-0925_RLatLon0.09_PT080H.grib2 2026-04-27 15:06 714K
20260427T12Z_MSC_RDPS_SpecificHumidity_IsbL-0950_RLatLon0.09_PT080H.grib2 2026-04-27 15:06 713K
20260427T12Z_MSC_RDPS_SpecificHumidity_IsbL-0970_RLatLon0.09_PT080H.grib2 2026-04-27 15:06 702K
20260427T12Z_MSC_RDPS_SpecificHumidity_IsbL-0985_RLatLon0.09_PT080H.grib2 2026-04-27 15:06 693K
20260427T12Z_MSC_RDPS_SpecificHumidity_IsbL-1000_RLatLon0.09_PT080H.grib2 2026-04-27 15:06 686K
20260427T12Z_MSC_RDPS_SpecificHumidity_IsbL-1015_RLatLon0.09_PT080H.grib2 2026-04-27 15:06 676K
20260427T12Z_MSC_RDPS_SpecificHumidity_Sfc_RLatLon0.09_PT080H.grib2 2026-04-27 15:06 342K
20260427T12Z_MSC_RDPS_StormRelativeHelicity_EtaL-10000_RLatLon0.09_PT080H.grib2 2026-04-27 15:06 1.1M
20260427T12Z_MSC_RDPS_StormSeverityIndex_EtaL-10000_RLatLon0.09_PT080H.grib2 2026-04-27 15:06 1.2M
20260427T12Z_MSC_RDPS_Thickness_IsbL-0850to0700_RLatLon0.09_PT080H.grib2 2026-04-27 15:06 179K
20260427T12Z_MSC_RDPS_Thickness_IsbL-1000to0500_RLatLon0.09_PT080H.grib2 2026-04-27 15:06 201K
20260427T12Z_MSC_RDPS_Thickness_IsbL-1000to0850_RLatLon0.09_PT080H.grib2 2026-04-27 15:06 188K
20260427T12Z_MSC_RDPS_TotalCloudCover_Sfc_RLatLon0.09_PT080H.grib2 2026-04-27 15:06 659K
20260427T12Z_MSC_RDPS_TotalTotalsIndex_Sfc_RLatLon0.09_PT080H.grib2 2026-04-27 15:06 2.4M
20260427T12Z_MSC_RDPS_UVIndex-ClearSky_Sfc_RLatLon0.09_PT080H.grib2 2026-04-27 15:06 217K
20260427T12Z_MSC_RDPS_UVIndex_Sfc_RLatLon0.09_PT080H.grib2 2026-04-27 15:06 507K
20260427T12Z_MSC_RDPS_UpwardLongwaveRadiationFlux_NTAtm_RLatLon0.09_PT080H.grib2 2026-04-27 15:06 389K
20260427T12Z_MSC_RDPS_UpwardShortwaveRadiationFlux_NTAtm_RLatLon0.09_PT080H.grib2 2026-04-27 15:06 541K
20260427T12Z_MSC_RDPS_VerticalVelocity_IsbL-0250_RLatLon0.09_PT080H.grib2 2026-04-27 15:06 552K
20260427T12Z_MSC_RDPS_VerticalVelocity_IsbL-0500_RLatLon0.09_PT080H.grib2 2026-04-27 15:06 547K
20260427T12Z_MSC_RDPS_VerticalVelocity_IsbL-0700_RLatLon0.09_PT080H.grib2 2026-04-27 15:06 598K
20260427T12Z_MSC_RDPS_VerticalVelocity_IsbL-0850_RLatLon0.09_PT080H.grib2 2026-04-27 15:06 521K
20260427T12Z_MSC_RDPS_VerticalWindShear_EtaL-6500_RLatLon0.09_PT080H.grib2 2026-04-27 15:06 1.2M
20260427T12Z_MSC_RDPS_WindChill_Sfc_RLatLon0.09_PT080H.grib2 2026-04-27 15:06 1.1M
20260427T12Z_MSC_RDPS_WindDir_AGL-10m_RLatLon0.09_PT080H.grib2 2026-04-27 15:06 1.0M
20260427T12Z_MSC_RDPS_WindDir_AGL-120m_RLatLon0.09_PT080H.grib2 2026-04-27 15:06 622K
20260427T12Z_MSC_RDPS_WindDir_AGL-40m_RLatLon0.09_PT080H.grib2 2026-04-27 15:06 643K
20260427T12Z_MSC_RDPS_WindDir_AGL-80m_RLatLon0.09_PT080H.grib2 2026-04-27 15:06 631K
20260427T12Z_MSC_RDPS_WindDir_IsbL-0001_RLatLon0.09_PT080H.grib2 2026-04-27 15:06 285K
20260427T12Z_MSC_RDPS_WindDir_IsbL-0005_RLatLon0.09_PT080H.grib2 2026-04-27 15:06 362K
20260427T12Z_MSC_RDPS_WindDir_IsbL-0010_RLatLon0.09_PT080H.grib2 2026-04-27 15:06 377K
20260427T12Z_MSC_RDPS_WindDir_IsbL-0020_RLatLon0.09_PT080H.grib2 2026-04-27 15:06 422K
20260427T12Z_MSC_RDPS_WindDir_IsbL-0030_RLatLon0.09_PT080H.grib2 2026-04-27 15:06 408K
20260427T12Z_MSC_RDPS_WindDir_IsbL-0050_RLatLon0.09_PT080H.grib2 2026-04-27 15:06 428K
20260427T12Z_MSC_RDPS_WindDir_IsbL-0100_RLatLon0.09_PT080H.grib2 2026-04-27 15:06 428K
20260427T12Z_MSC_RDPS_WindDir_IsbL-0150_RLatLon0.09_PT080H.grib2 2026-04-27 15:06 415K
20260427T12Z_MSC_RDPS_WindDir_IsbL-0175_RLatLon0.09_PT080H.grib2 2026-04-27 15:06 442K
20260427T12Z_MSC_RDPS_WindDir_IsbL-0200_RLatLon0.09_PT080H.grib2 2026-04-27 15:06 453K
20260427T12Z_MSC_RDPS_WindDir_IsbL-0225_RLatLon0.09_PT080H.grib2 2026-04-27 15:06 457K
20260427T12Z_MSC_RDPS_WindDir_IsbL-0250_RLatLon0.09_PT080H.grib2 2026-04-27 15:06 455K
20260427T12Z_MSC_RDPS_WindDir_IsbL-0275_RLatLon0.09_PT080H.grib2 2026-04-27 15:06 479K
20260427T12Z_MSC_RDPS_WindDir_IsbL-0300_RLatLon0.09_PT080H.grib2 2026-04-27 15:06 477K
20260427T12Z_MSC_RDPS_WindDir_IsbL-0350_RLatLon0.09_PT080H.grib2 2026-04-27 15:06 500K
20260427T12Z_MSC_RDPS_WindDir_IsbL-0400_RLatLon0.09_PT080H.grib2 2026-04-27 15:06 509K
20260427T12Z_MSC_RDPS_WindDir_IsbL-0450_RLatLon0.09_PT080H.grib2 2026-04-27 15:06 522K
20260427T12Z_MSC_RDPS_WindDir_IsbL-0500_RLatLon0.09_PT080H.grib2 2026-04-27 15:06 540K
20260427T12Z_MSC_RDPS_WindDir_IsbL-0550_RLatLon0.09_PT080H.grib2 2026-04-27 15:06 562K
20260427T12Z_MSC_RDPS_WindDir_IsbL-0600_RLatLon0.09_PT080H.grib2 2026-04-27 15:06 593K
20260427T12Z_MSC_RDPS_WindDir_IsbL-0650_RLatLon0.09_PT080H.grib2 2026-04-27 15:06 636K
20260427T12Z_MSC_RDPS_WindDir_IsbL-0700_RLatLon0.09_PT080H.grib2 2026-04-27 15:06 684K
20260427T12Z_MSC_RDPS_WindDir_IsbL-0750_RLatLon0.09_PT080H.grib2 2026-04-27 15:06 733K
20260427T12Z_MSC_RDPS_WindDir_IsbL-0800_RLatLon0.09_PT080H.grib2 2026-04-27 15:06 793K
20260427T12Z_MSC_RDPS_WindDir_IsbL-0850_RLatLon0.09_PT080H.grib2 2026-04-27 15:06 862K
20260427T12Z_MSC_RDPS_WindDir_IsbL-0875_RLatLon0.09_PT080H.grib2 2026-04-27 15:06 891K
20260427T12Z_MSC_RDPS_WindDir_IsbL-0900_RLatLon0.09_PT080H.grib2 2026-04-27 15:06 912K
20260427T12Z_MSC_RDPS_WindDir_IsbL-0925_RLatLon0.09_PT080H.grib2 2026-04-27 15:06 926K
20260427T12Z_MSC_RDPS_WindDir_IsbL-0950_RLatLon0.09_PT080H.grib2 2026-04-27 15:06 926K
20260427T12Z_MSC_RDPS_WindDir_IsbL-0970_RLatLon0.09_PT080H.grib2 2026-04-27 15:06 933K
20260427T12Z_MSC_RDPS_WindDir_IsbL-0985_RLatLon0.09_PT080H.grib2 2026-04-27 15:06 944K
20260427T12Z_MSC_RDPS_WindDir_IsbL-1000_RLatLon0.09_PT080H.grib2 2026-04-27 15:06 955K
20260427T12Z_MSC_RDPS_WindDir_IsbL-1015_RLatLon0.09_PT080H.grib2 2026-04-27 15:06 969K
20260427T12Z_MSC_RDPS_WindGust-Max_AGL-10m_RLatLon0.09_PT080H.grib2 2026-04-27 15:06 1.0M
20260427T12Z_MSC_RDPS_WindGust-Min_AGL-10m_RLatLon0.09_PT080H.grib2 2026-04-27 15:06 963K
20260427T12Z_MSC_RDPS_WindGust_AGL-10m_RLatLon0.09_PT080H.grib2 2026-04-27 15:06 972K
20260427T12Z_MSC_RDPS_WindSpeed_AGL-10m_RLatLon0.09_PT080H.grib2 2026-04-27 15:06 831K
20260427T12Z_MSC_RDPS_WindSpeed_AGL-120m_RLatLon0.09_PT080H.grib2 2026-04-27 15:06 532K
20260427T12Z_MSC_RDPS_WindSpeed_AGL-40m_RLatLon0.09_PT080H.grib2 2026-04-27 15:06 534K
20260427T12Z_MSC_RDPS_WindSpeed_AGL-80m_RLatLon0.09_PT080H.grib2 2026-04-27 15:06 532K
20260427T12Z_MSC_RDPS_WindSpeed_IsbL-0001_RLatLon0.09_PT080H.grib2 2026-04-27 15:06 335K
20260427T12Z_MSC_RDPS_WindSpeed_IsbL-0005_RLatLon0.09_PT080H.grib2 2026-04-27 15:06 384K
20260427T12Z_MSC_RDPS_WindSpeed_IsbL-0010_RLatLon0.09_PT080H.grib2 2026-04-27 15:06 403K
20260427T12Z_MSC_RDPS_WindSpeed_IsbL-0020_RLatLon0.09_PT080H.grib2 2026-04-27 15:06 330K
20260427T12Z_MSC_RDPS_WindSpeed_IsbL-0030_RLatLon0.09_PT080H.grib2 2026-04-27 15:06 328K
20260427T12Z_MSC_RDPS_WindSpeed_IsbL-0050_RLatLon0.09_PT080H.grib2 2026-04-27 15:06 454K
20260427T12Z_MSC_RDPS_WindSpeed_IsbL-0100_RLatLon0.09_PT080H.grib2 2026-04-27 15:06 477K
20260427T12Z_MSC_RDPS_WindSpeed_IsbL-0150_RLatLon0.09_PT080H.grib2 2026-04-27 15:06 382K
20260427T12Z_MSC_RDPS_WindSpeed_IsbL-0175_RLatLon0.09_PT080H.grib2 2026-04-27 15:06 428K
20260427T12Z_MSC_RDPS_WindSpeed_IsbL-0200_RLatLon0.09_PT080H.grib2 2026-04-27 15:06 445K
20260427T12Z_MSC_RDPS_WindSpeed_IsbL-0225_RLatLon0.09_PT080H.grib2 2026-04-27 15:06 450K
20260427T12Z_MSC_RDPS_WindSpeed_IsbL-0250_RLatLon0.09_PT080H.grib2 2026-04-27 15:06 454K
20260427T12Z_MSC_RDPS_WindSpeed_IsbL-0275_RLatLon0.09_PT080H.grib2 2026-04-27 15:06 473K
20260427T12Z_MSC_RDPS_WindSpeed_IsbL-0300_RLatLon0.09_PT080H.grib2 2026-04-27 15:06 469K
20260427T12Z_MSC_RDPS_WindSpeed_IsbL-0350_RLatLon0.09_PT080H.grib2 2026-04-27 15:06 481K
20260427T12Z_MSC_RDPS_WindSpeed_IsbL-0400_RLatLon0.09_PT080H.grib2 2026-04-27 15:06 484K
20260427T12Z_MSC_RDPS_WindSpeed_IsbL-0450_RLatLon0.09_PT080H.grib2 2026-04-27 15:06 466K
20260427T12Z_MSC_RDPS_WindSpeed_IsbL-0500_RLatLon0.09_PT080H.grib2 2026-04-27 15:06 468K
20260427T12Z_MSC_RDPS_WindSpeed_IsbL-0550_RLatLon0.09_PT080H.grib2 2026-04-27 15:06 469K
20260427T12Z_MSC_RDPS_WindSpeed_IsbL-0600_RLatLon0.09_PT080H.grib2 2026-04-27 15:06 596K
20260427T12Z_MSC_RDPS_WindSpeed_IsbL-0650_RLatLon0.09_PT080H.grib2 2026-04-27 15:06 616K
20260427T12Z_MSC_RDPS_WindSpeed_IsbL-0700_RLatLon0.09_PT080H.grib2 2026-04-27 15:06 685K
20260427T12Z_MSC_RDPS_WindSpeed_IsbL-0750_RLatLon0.09_PT080H.grib2 2026-04-27 15:06 715K
20260427T12Z_MSC_RDPS_WindSpeed_IsbL-0800_RLatLon0.09_PT080H.grib2 2026-04-27 15:06 756K
20260427T12Z_MSC_RDPS_WindSpeed_IsbL-0850_RLatLon0.09_PT080H.grib2 2026-04-27 15:06 809K
20260427T12Z_MSC_RDPS_WindSpeed_IsbL-0875_RLatLon0.09_PT080H.grib2 2026-04-27 15:06 831K
20260427T12Z_MSC_RDPS_WindSpeed_IsbL-0900_RLatLon0.09_PT080H.grib2 2026-04-27 15:06 847K
20260427T12Z_MSC_RDPS_WindSpeed_IsbL-0925_RLatLon0.09_PT080H.grib2 2026-04-27 15:06 859K
20260427T12Z_MSC_RDPS_WindSpeed_IsbL-0950_RLatLon0.09_PT080H.grib2 2026-04-27 15:06 857K
20260427T12Z_MSC_RDPS_WindSpeed_IsbL-0970_RLatLon0.09_PT080H.grib2 2026-04-27 15:06 858K
20260427T12Z_MSC_RDPS_WindSpeed_IsbL-0985_RLatLon0.09_PT080H.grib2 2026-04-27 15:06 850K
20260427T12Z_MSC_RDPS_WindSpeed_IsbL-1000_RLatLon0.09_PT080H.grib2 2026-04-27 15:06 844K
20260427T12Z_MSC_RDPS_WindSpeed_IsbL-1015_RLatLon0.09_PT080H.grib2 2026-04-27 15:06 834K
20260427T12Z_MSC_RDPS_WindU_AGL-10m_RLatLon0.09_PT080H.grib2 2026-04-27 15:06 432K
20260427T12Z_MSC_RDPS_WindU_AGL-120m_RLatLon0.09_PT080H.grib2 2026-04-27 15:06 416K
20260427T12Z_MSC_RDPS_WindU_AGL-40m_RLatLon0.09_PT080H.grib2 2026-04-27 15:06 535K
20260427T12Z_MSC_RDPS_WindU_AGL-80m_RLatLon0.09_PT080H.grib2 2026-04-27 15:06 534K
20260427T12Z_MSC_RDPS_WindU_IsbL-0001_RLatLon0.09_PT080H.grib2 2026-04-27 15:06 246K
20260427T12Z_MSC_RDPS_WindU_IsbL-0005_RLatLon0.09_PT080H.grib2 2026-04-27 15:06 287K
20260427T12Z_MSC_RDPS_WindU_IsbL-0010_RLatLon0.09_PT080H.grib2 2026-04-27 15:06 302K
20260427T12Z_MSC_RDPS_WindU_IsbL-0020_RLatLon0.09_PT080H.grib2 2026-04-27 15:06 318K
20260427T12Z_MSC_RDPS_WindU_IsbL-0030_RLatLon0.09_PT080H.grib2 2026-04-27 15:06 318K
20260427T12Z_MSC_RDPS_WindU_IsbL-0050_RLatLon0.09_PT080H.grib2 2026-04-27 15:06 344K
20260427T12Z_MSC_RDPS_WindU_IsbL-0100_RLatLon0.09_PT080H.grib2 2026-04-27 15:06 337K
20260427T12Z_MSC_RDPS_WindU_IsbL-0150_RLatLon0.09_PT080H.grib2 2026-04-27 15:06 398K
20260427T12Z_MSC_RDPS_WindU_IsbL-0175_RLatLon0.09_PT080H.grib2 2026-04-27 15:06 422K
20260427T12Z_MSC_RDPS_WindU_IsbL-0200_RLatLon0.09_PT080H.grib2 2026-04-27 15:06 339K
20260427T12Z_MSC_RDPS_WindU_IsbL-0225_RLatLon0.09_PT080H.grib2 2026-04-27 15:06 342K
20260427T12Z_MSC_RDPS_WindU_IsbL-0250_RLatLon0.09_PT080H.grib2 2026-04-27 15:06 345K
20260427T12Z_MSC_RDPS_WindU_IsbL-0275_RLatLon0.09_PT080H.grib2 2026-04-27 15:06 360K
20260427T12Z_MSC_RDPS_WindU_IsbL-0300_RLatLon0.09_PT080H.grib2 2026-04-27 15:06 355K
20260427T12Z_MSC_RDPS_WindU_IsbL-0350_RLatLon0.09_PT080H.grib2 2026-04-27 15:06 365K
20260427T12Z_MSC_RDPS_WindU_IsbL-0400_RLatLon0.09_PT080H.grib2 2026-04-27 15:06 368K
20260427T12Z_MSC_RDPS_WindU_IsbL-0450_RLatLon0.09_PT080H.grib2 2026-04-27 15:06 472K
20260427T12Z_MSC_RDPS_WindU_IsbL-0500_RLatLon0.09_PT080H.grib2 2026-04-27 15:06 474K
20260427T12Z_MSC_RDPS_WindU_IsbL-0550_RLatLon0.09_PT080H.grib2 2026-04-27 15:06 475K
20260427T12Z_MSC_RDPS_WindU_IsbL-0600_RLatLon0.09_PT080H.grib2 2026-04-27 15:06 465K
20260427T12Z_MSC_RDPS_WindU_IsbL-0650_RLatLon0.09_PT080H.grib2 2026-04-27 15:06 485K
20260427T12Z_MSC_RDPS_WindU_IsbL-0700_RLatLon0.09_PT080H.grib2 2026-04-27 15:06 508K
20260427T12Z_MSC_RDPS_WindU_IsbL-0750_RLatLon0.09_PT080H.grib2 2026-04-27 15:06 660K
20260427T12Z_MSC_RDPS_WindU_IsbL-0800_RLatLon0.09_PT080H.grib2 2026-04-27 15:06 701K
20260427T12Z_MSC_RDPS_WindU_IsbL-0850_RLatLon0.09_PT080H.grib2 2026-04-27 15:06 618K
20260427T12Z_MSC_RDPS_WindU_IsbL-0875_RLatLon0.09_PT080H.grib2 2026-04-27 15:06 637K
20260427T12Z_MSC_RDPS_WindU_IsbL-0900_RLatLon0.09_PT080H.grib2 2026-04-27 15:06 650K
20260427T12Z_MSC_RDPS_WindU_IsbL-0925_RLatLon0.09_PT080H.grib2 2026-04-27 15:06 658K
20260427T12Z_MSC_RDPS_WindU_IsbL-0950_RLatLon0.09_PT080H.grib2 2026-04-27 15:06 654K
20260427T12Z_MSC_RDPS_WindU_IsbL-0970_RLatLon0.09_PT080H.grib2 2026-04-27 15:06 653K
20260427T12Z_MSC_RDPS_WindU_IsbL-0985_RLatLon0.09_PT080H.grib2 2026-04-27 15:06 650K
20260427T12Z_MSC_RDPS_WindU_IsbL-1000_RLatLon0.09_PT080H.grib2 2026-04-27 15:06 787K
20260427T12Z_MSC_RDPS_WindU_IsbL-1015_RLatLon0.09_PT080H.grib2 2026-04-27 15:06 779K
20260427T12Z_MSC_RDPS_WindV_AGL-10m_RLatLon0.09_PT080H.grib2 2026-04-27 15:06 429K
20260427T12Z_MSC_RDPS_WindV_AGL-120m_RLatLon0.09_PT080H.grib2 2026-04-27 15:06 530K
20260427T12Z_MSC_RDPS_WindV_AGL-40m_RLatLon0.09_PT080H.grib2 2026-04-27 15:06 530K
20260427T12Z_MSC_RDPS_WindV_AGL-80m_RLatLon0.09_PT080H.grib2 2026-04-27 15:06 530K
20260427T12Z_MSC_RDPS_WindV_IsbL-0001_RLatLon0.09_PT080H.grib2 2026-04-27 15:06 247K
20260427T12Z_MSC_RDPS_WindV_IsbL-0005_RLatLon0.09_PT080H.grib2 2026-04-27 15:06 287K
20260427T12Z_MSC_RDPS_WindV_IsbL-0010_RLatLon0.09_PT080H.grib2 2026-04-27 15:06 305K
20260427T12Z_MSC_RDPS_WindV_IsbL-0020_RLatLon0.09_PT080H.grib2 2026-04-27 15:06 321K
20260427T12Z_MSC_RDPS_WindV_IsbL-0030_RLatLon0.09_PT080H.grib2 2026-04-27 15:06 320K
20260427T12Z_MSC_RDPS_WindV_IsbL-0050_RLatLon0.09_PT080H.grib2 2026-04-27 15:06 344K
20260427T12Z_MSC_RDPS_WindV_IsbL-0100_RLatLon0.09_PT080H.grib2 2026-04-27 15:06 427K
20260427T12Z_MSC_RDPS_WindV_IsbL-0150_RLatLon0.09_PT080H.grib2 2026-04-27 15:06 395K
20260427T12Z_MSC_RDPS_WindV_IsbL-0175_RLatLon0.09_PT080H.grib2 2026-04-27 15:06 420K
20260427T12Z_MSC_RDPS_WindV_IsbL-0200_RLatLon0.09_PT080H.grib2 2026-04-27 15:06 338K
20260427T12Z_MSC_RDPS_WindV_IsbL-0225_RLatLon0.09_PT080H.grib2 2026-04-27 15:06 341K
20260427T12Z_MSC_RDPS_WindV_IsbL-0250_RLatLon0.09_PT080H.grib2 2026-04-27 15:06 342K
20260427T12Z_MSC_RDPS_WindV_IsbL-0275_RLatLon0.09_PT080H.grib2 2026-04-27 15:06 358K
20260427T12Z_MSC_RDPS_WindV_IsbL-0300_RLatLon0.09_PT080H.grib2 2026-04-27 15:06 354K
20260427T12Z_MSC_RDPS_WindV_IsbL-0350_RLatLon0.09_PT080H.grib2 2026-04-27 15:06 465K
20260427T12Z_MSC_RDPS_WindV_IsbL-0400_RLatLon0.09_PT080H.grib2 2026-04-27 15:06 467K
20260427T12Z_MSC_RDPS_WindV_IsbL-0450_RLatLon0.09_PT080H.grib2 2026-04-27 15:06 467K
20260427T12Z_MSC_RDPS_WindV_IsbL-0500_RLatLon0.09_PT080H.grib2 2026-04-27 15:06 468K
20260427T12Z_MSC_RDPS_WindV_IsbL-0550_RLatLon0.09_PT080H.grib2 2026-04-27 15:06 470K
20260427T12Z_MSC_RDPS_WindV_IsbL-0600_RLatLon0.09_PT080H.grib2 2026-04-27 15:06 479K
20260427T12Z_MSC_RDPS_WindV_IsbL-0650_RLatLon0.09_PT080H.grib2 2026-04-27 15:06 481K
20260427T12Z_MSC_RDPS_WindV_IsbL-0700_RLatLon0.09_PT080H.grib2 2026-04-27 15:06 504K
20260427T12Z_MSC_RDPS_WindV_IsbL-0750_RLatLon0.09_PT080H.grib2 2026-04-27 15:06 529K
20260427T12Z_MSC_RDPS_WindV_IsbL-0800_RLatLon0.09_PT080H.grib2 2026-04-27 15:06 695K
20260427T12Z_MSC_RDPS_WindV_IsbL-0850_RLatLon0.09_PT080H.grib2 2026-04-27 15:06 747K
20260427T12Z_MSC_RDPS_WindV_IsbL-0875_RLatLon0.09_PT080H.grib2 2026-04-27 15:06 770K
20260427T12Z_MSC_RDPS_WindV_IsbL-0900_RLatLon0.09_PT080H.grib2 2026-04-27 15:06 648K
20260427T12Z_MSC_RDPS_WindV_IsbL-0925_RLatLon0.09_PT080H.grib2 2026-04-27 15:06 795K
20260427T12Z_MSC_RDPS_WindV_IsbL-0950_RLatLon0.09_PT080H.grib2 2026-04-27 15:06 790K
20260427T12Z_MSC_RDPS_WindV_IsbL-0970_RLatLon0.09_PT080H.grib2 2026-04-27 15:06 790K
20260427T12Z_MSC_RDPS_WindV_IsbL-0985_RLatLon0.09_PT080H.grib2 2026-04-27 15:06 834K
20260427T12Z_MSC_RDPS_WindV_IsbL-1000_RLatLon0.09_PT080H.grib2 2026-04-27 15:06 828K
20260427T12Z_MSC_RDPS_WindV_IsbL-1015_RLatLon0.09_PT080H.grib2 2026-04-27 15:06 820K